Location: Unspecified
(0.0000°N, 0.0000°E)
Time: 16:50:25
(UTC+00:00)

CZ-3C DEB - Pass Details

Date: 07 March 2026
Orbit: 640 x 36740 km, 20.7° (Epoch: 1 May)

Event Time Altitude Azimuth Distance (km) Brightness Sun altitude
Rises 12:22:03 0° 293° (WNW) 13,848 ? 84.2°
Reaches altitude 10° 12:31:47 10° 294° (WNW) 15,218 ? 82.7°
Maximum altitude 14:12:30 37° 289° (WNW) 29,647 ? 59.2°
Drops below altitude 10° 18:22:28 10° 271° (W) 40,283 ? -2.9°
Sets 19:42:48 0° 267° (W) 36,127 ? -22.9°
